Flag for United Arab Emirates Weather past 2 weeks in Abu Dhabi, Abu Dhabi, United Arab Emirates

Now
93 °F

Clear.


Feels Like: 101 °F
Forecast: 92 / 101 °F
Wind: 8 mph from Northeast

Location: Abu Dhabi Bateen Airport

Current Time: May 30, 2015 at 8:42:37 PM

Latest Report: May 30, 2015 at 8:00 PM


Visibility: 10 mi

Pressure: 29.68 "Hg

Humidity: 49%

Dew point: 72 °F

Location of Abu DhabiLocation

Historic Weather in Abu Dhabi — Graph

°F

Abu Dhabi temperature yesterday

Maximum temperature yesterday: 104 °F (at 2:00 PM)
Minimum temperature yesterday: 79 °F (at 4:00 AM)
Average temperature yesterday: 90 °F

Past Weeks' High & Low Weather Summary

 TemperatureHumidityPressure
High111 °F (May 23, 3:00 PM)89% (May 20, 4:00 AM)29.77 "Hg (May 20, 4:00 AM)
Low77 °F (May 19, 8:00 AM)7% (May 22, 1:00 PM)29.59 "Hg (May 28, 4:00 PM)
Average92 °F41%29.68 "Hg
* Reported May 15 7:00 PM — May 30 7:00 PM, Abu Dhabi, Weather by CustomWeather, © 2015

Note: Actual official high and low records may vary slightly from our data, if they occured in-between our weather recording intervals... More about our weather records

Advertising

Abu Dhabi weather history for previous 24 hours

 ConditionsComfort  
Time TempWeatherWind HumidityBarometerVisibility
7:00 PM
Sat, May 30
97 °FPassing clouds.7 mph37%29.68 "HgN/A
6:00 PM100 °FSunny.10 mph27%29.65 "Hg10 mi
5:00 PM104 °FPassing clouds.10 mph21%29.65 "HgN/A
4:00 PM108 °FSunny.10 mph19%29.65 "Hg10 mi
3:00 PM108 °FSunny.12 mph15%29.68 "Hg10 mi
2:00 PM111 °FPassing clouds.7 mph8%29.68 "HgN/A
1:00 PM109 °FPassing clouds.9 mph10%29.71 "HgN/A
12:00 PM108 °FClear.8 mph13%29.71 "Hg6 mi
11:00 AM104 °FClear.12 mph13%29.74 "Hg5 mi
10:00 AM99 °FSunny.9 mph18%29.74 "Hg10 mi
9:00 AM93 °FSunny.10 mph20%29.74 "Hg10 mi
8:00 AM90 °FPassing clouds.7 mph29%29.74 "HgN/A
7:00 AM86 °FSunny.8 mph38%29.71 "Hg10 mi
6:00 AM82 °FSunny.8 mph55%29.68 "Hg10 mi
5:00 AM84 °FClear.6 mph55%29.68 "Hg10 mi
4:00 AM84 °FClear.2 mph62%29.65 "Hg10 mi
3:00 AM86 °FClear.2 mph43%29.62 "Hg10 mi
2:00 AM88 °FPassing clouds.6 mph40%29.65 "HgN/A
1:00 AM88 °FPassing clouds.3 mph43%29.65 "HgN/A
12:00 AM88 °FWarm.3 mph52%29.65 "HgN/A
11:00 PM
Fri, May 29
90 °FClear.6 mph49%29.65 "Hg10 mi
10:00 PM88 °FClear.7 mph66%29.65 "Hg10 mi
8:00 PM90 °FClear.7 mph67%29.62 "Hg10 mi
Weather by CustomWeather, © 2015

See weather overviewHow to use our weather pages